Tri-Cities, TN

1:17 PM EST on November 24, 2017 (GMT -0500)
Tri-Cities Regional Tennessee / Virginia

Weather History for KTRI - January, 2013

Change the Weather History Date:

Monday, January 28, 2013

  Actual Average Record
Temperature  
Mean Temperature 49 °F 36 °F  
Max Temperature 62 °F 46 °F 70 °F (1970)
Min Temperature 36 °F 25 °F -5 °F (1986)
Degree Days  
Heating Degree Days 16 29  
Month to date heating degree days 724 838  
Since 1 July heating degree days 2391 2567  
Cooling Degree Days 0 0  
Month to date cooling degree days 0 0  
Year to date cooling degree days 0 0  
Moisture  
Dew Point 39 °F    
Average Humidity 67    
Maximum Humidity 85    
Minimum Humidity 49    
Precipitation  
Precipitation 0.04 in 0.11 in 1.94 in (1957)
Month to date precipitation 7.84 3.03  
Year to date precipitation 7.84 3.03  
Snow  
Snow 0.00 in 0.10 in - ()
Month to date snowfall 3.5 4.2  
Since 1 July snowfall 4.1 6.9  
Snow Depth 0.00 in    
Sea Level Pressure  
Sea Level Pressure 30.28 in    
Wind  
Wind Speed 3 mph (WNW)    
Max Wind Speed 14 mph    
Max Gust Speed 16 mph    
Visibility 9 miles    
Events Rain    
T = Trace of Precipitation, MM = Missing Value Source: NWS Daily Summary

Daily Weather History Graph

Daily Weather History Graph

Search for Another Location

Airport or City:

Trip Planner

Search our weather history database for the weather conditions in past years. The results will help you decide how hot, cold, wet, or windy it might be!

Date:

Astronomy

Jan. 28, 2013 Rise Set
Actual Time 7:33 AM EST 5:51 PM EST
Civil Twilight 7:06 AM EST 6:19 PM EST
Nautical Twilight 6:35 AM EST 6:50 PM EST
Astronomical Twilight 6:05 AM EST 7:20 PM EST
Moon 7:40 PM EST (1/28) 8:02 AM EST (1/28)
Length of Visible Light 11h 12m
Length of Day
10h 17m
Full, 98% of the Moon is Illuminated
Jan 28
Full
Feb 3
Last Quarter
Feb 10
New
Feb 17
First Quarter
Feb 25
Full

Hourly Weather History & Observations

Time (EST) Temp. Windchill Dew Point Humidity Pressure Visibility Wind Dir Wind Speed Gust Speed Precip Events Conditions
12:46 AM 37.4 °F - 33.8 °F 87% 30.43 in 9.0 mi Calm Calm - N/A   Partly Cloudy
12:53 AM 37.9 °F - 33.1 °F 83% 30.33 in 9.0 mi Calm Calm - N/A   Overcast
1:53 AM 37.9 °F 34.4 °F 32.0 °F 79% 30.31 in 9.0 mi NE 4.6 mph - 0.00 in Rain Light Rain
2:53 AM 37.9 °F - 34.0 °F 86% 30.32 in 9.0 mi Calm Calm - 0.00 in   Overcast
3:53 AM 37.9 °F - 33.1 °F 83% 30.32 in 9.0 mi Calm Calm - N/A   Overcast
4:53 AM 37.9 °F - 33.1 °F 83% 30.33 in 8.0 mi Calm Calm - N/A   Overcast
5:53 AM 37.0 °F - 32.0 °F 82% 30.34 in 9.0 mi Calm Calm - N/A   Mostly Cloudy
6:53 AM 37.0 °F - 34.0 °F 89% 30.36 in 7.0 mi Calm Calm - N/A   Overcast
7:53 AM 37.9 °F 35.5 °F 33.1 °F 83% 30.35 in 8.0 mi NE 3.5 mph - N/A   Overcast
8:53 AM 39.0 °F - 34.0 °F 82% 30.35 in 9.0 mi Calm Calm - N/A   Mostly Cloudy
9:53 AM 43.0 °F - 35.1 °F 74% 30.33 in 9.0 mi Calm Calm - N/A   Partly Cloudy
10:53 AM 46.9 °F - 36.0 °F 66% 30.32 in 10.0 mi Calm Calm - N/A   Clear
11:53 AM 53.1 °F - 37.0 °F 55% 30.28 in 10.0 mi Calm Calm - N/A   Clear
12:53 PM 57.0 °F - 39.9 °F 53% 30.24 in 10.0 mi NW 8.1 mph - N/A   Scattered Clouds
1:53 PM 57.9 °F - 39.9 °F 51% 30.21 in 10.0 mi NW 10.4 mph - N/A   Partly Cloudy
2:53 PM 60.1 °F - 41.0 °F 49% 30.19 in 10.0 mi West 8.1 mph - N/A   Mostly Cloudy
3:53 PM 60.1 °F - 43.0 °F 53% 30.19 in 10.0 mi West 8.1 mph - N/A   Mostly Cloudy
4:53 PM 57.0 °F - 43.0 °F 59% 30.19 in 10.0 mi West 8.1 mph - N/A   Overcast
5:53 PM 55.9 °F - 43.0 °F 62% 30.20 in 10.0 mi West 5.8 mph - N/A   Overcast
6:53 PM 54.0 °F - 44.1 °F 69% 30.22 in 10.0 mi NW 5.8 mph - 0.00 in Rain Light Rain
7:53 PM 54.0 °F - 44.1 °F 69% 30.23 in 10.0 mi Calm Calm - 0.00 in   Overcast
8:53 PM 52.0 °F - 45.0 °F 77% 30.23 in 10.0 mi SSW 3.5 mph - N/A   Overcast
9:53 PM 50.0 °F - 46.0 °F 86% 30.22 in 9.0 mi NW 3.5 mph - 0.02 in Rain Light Rain
10:53 PM 48.9 °F - 46.9 °F 93% 30.21 in 7.0 mi Calm Calm - 0.01 in Rain Light Rain
11:53 PM 48.9 °F - 46.9 °F 93% 30.21 in 7.0 mi Calm Calm - 0.01 in Rain Light Rain